Le nostre stazioni meteo in Italia

Pubblicità
Il mio iltempo24.it
Vigna Di Valle, Italia (16224): Temperatura & dewpoint: 03.07.2020 22:00:00 - 09.07.2020 22:00:00 (CEST)Vigna Di Valle, Italia (16224): velocità del vento: 03.07.2020 22:00:00 - 09.07.2020 22:00:00 (CEST)Vigna Di Valle, Italia (16224): direzione del vento: 03.07.2020 22:00:00 - 09.07.2020 22:00:00 (CEST)Vigna Di Valle, Italia (16224): reduced air pressure: 03.07.2020 22:00:00 - 09.07.2020 22:00:00 (CEST)Vigna Di Valle, Italia (16224): ore di luce: 03.07.2020 22:00:00 - 09.07.2020 22:00:00 (CEST)
Data & Tempo tt [°C] td [°C] ff [km/h] ff [kn] dd ppp [hPa] sd [min]
09.07.2020 22:00:00 25,1 11,9 5 3 O 1016,0 0
09.07.2020 21:00:00 25,8 14,1 8 4 O 1015,6 25
09.07.2020 20:00:00 28,8 14,5 11 6 O 1015,1 60
09.07.2020 19:00:00 30,5 13,5 11 6 O 1014,9 60
09.07.2020 18:00:00 31,1 12,3 11 6 O 1015,1 60
09.07.2020 17:00:00 32,3 13,1 8 4 NO 1015,3 60
09.07.2020 16:00:00 32,4 13,6 4 2 N 1015,3 60
09.07.2020 15:00:00 32,2 13,9 18 10 SO 1015,8 57
09.07.2020 14:00:00 31,6 16,2 4 2 N 1016,0 44
09.07.2020 13:00:00 30,8 16,1 9 5 N 1016,4 60
09.07.2020 12:00:00 29,4 17,0 4 2 N 1016,7 60
09.07.2020 11:00:00 28,6 16,5 8 4 N 1017,0 60
09.07.2020 10:00:00 27,4 16,4 5 3 NE 1017,1 60
09.07.2020 09:00:00 25,6 19,2 8 4 NE 1017,2 60
09.07.2020 08:00:00 23,8 21,4 8 4 NE 1017,2 59
09.07.2020 07:00:00 22,1 21,5 8 4 NE 1016,9 26
09.07.2020 06:00:00 20,3 20,3 5 3 NNE 1016,7 0
09.07.2020 05:00:00 19,9 19,8 5 3 NNO 1016,8 0
09.07.2020 04:00:00 20,6 20,5 5 3 NE 1016,7 0
09.07.2020 03:00:00 20,8 20,0 5 3 NO 1016,8 0
09.07.2020 02:00:00 21,3 17,7 5 3 NNO 1016,7 0
09.07.2020 01:00:00 21,6 15,8 4 2 N 1016,7 0
09.07.2020 00:00:00 21,8 18,9 5 3 O 1016,8 0
08.07.2020 23:00:00 21,8 21,6 5 3 SO 1016,8 0
08.07.2020 22:00:00 22,3 21,8 8 4 SSO 1016,3 0
08.07.2020 21:00:00 23,9 20,8 11 6 SSO 1015,5 25
08.07.2020 20:00:00 26,4 17,5 11 6 SO 1015,1 60
08.07.2020 19:00:00 27,0 19,3 15 8 SSO 1015,0 60
08.07.2020 18:00:00 27,5 19,2 16 9 SSO 1015,0 60
08.07.2020 17:00:00 28,1 19,0 18 10 SSO 1015,3 60
08.07.2020 16:00:00 28,3 18,7 16 9 SO 1015,3 60
08.07.2020 15:00:00 29,0 17,6 13 7 S 1015,2 60
08.07.2020 14:00:00 29,0 17,7 4 2 N 1015,5 57
08.07.2020 13:00:00 28,8 15,4 9 5 NNE 1015,7 60
08.07.2020 12:00:00 27,8 15,4 8 4 NNE 1015,9 60
08.07.2020 11:00:00 26,1 14,5 8 4 NNE 1016,0 60
08.07.2020 10:00:00 24,1 12,7 11 6 N 1015,9 60
08.07.2020 09:00:00 23,3 11,5 9 5 NE 1015,7 60
08.07.2020 08:00:00 21,8 11,1 11 6 NE 1015,4 60
08.07.2020 07:00:00 20,7 10,9 11 6 NE 1015,2 27
08.07.2020 06:00:00 19,9 11,5 11 6 NE 1015,1 0
08.07.2020 05:00:00 20,1 12,2 11 6 NE 1014,7 0
08.07.2020 04:00:00 20,4 12,9 11 6 NE 1014,4 0
08.07.2020 03:00:00 21,0 14,0 11 6 NE 1014,4 0
08.07.2020 02:00:00 21,6 14,5 11 6 NE 1014,4 0
08.07.2020 01:00:00 22,0 14,9 11 6 ENE 1014,2 0
08.07.2020 00:00:00 22,7 15,0 11 6 NE 1014,0 0
07.07.2020 23:00:00 23,5 14,6 8 4 NNE 1013,4 0
07.07.2020 22:00:00 24,4 15,1 4 2 N 1012,8 0
07.07.2020 21:00:00 25,8 14,7 9 5 NNE 1011,9 24
07.07.2020 20:00:00 28,3 16,8 4 2 N 1011,3 60
07.07.2020 19:00:00 29,9 15,5 9 5 SSO 1010,8 60
07.07.2020 18:00:00 30,3 14,9 9 5 SO 1010,6 60
07.07.2020 17:00:00 30,8 15,6 15 8 SSO 1010,5 60
07.07.2020 16:00:00 30,5 17,1 16 9 SO 1010,4 54
07.07.2020 15:00:00 31,1 16,9 11 6 SSO 1010,0 60
07.07.2020 14:00:00 31,6 14,5 9 5 NNO 1009,6 53
07.07.2020 13:00:00 30,0 14,7 11 6 N 1009,8 60
07.07.2020 12:00:00 29,7 15,8 13 7 N 1009,7 60
07.07.2020 11:00:00 28,1 16,1 16 9 N 1009,5 60
07.07.2020 10:00:00 27,3 15,1 8 4 N 1008,9 51
07.07.2020 09:00:00 25,3 16,4 11 6 N 1008,8 60
07.07.2020 08:00:00 24,4 17,4 5 3 NNE 1007,9 60
07.07.2020 07:00:00 22,9 17,0 8 4 NE 1007,9 27
07.07.2020 06:00:00 20,7 16,9 4 2 N 1007,9 0
07.07.2020 05:00:00 21,3 18,3 4 2 NNE 1007,4 0
07.07.2020 04:00:00 21,1 17,7 5 3 NNO 1007,7 0
07.07.2020 03:00:00 22,1 17,6 2 1 ONO 1007,3 0
07.07.2020 02:00:00 22,1 11,7 4 2 NO 1007,7 0
07.07.2020 01:00:00 23,7 11,0 5 3 O 1007,6 0
07.07.2020 00:00:00 24,3 10,6 5 3 NNO 1007,6 0
06.07.2020 23:00:00 23,2 10,9 8 4 OSO 1007,8 0
06.07.2020 22:00:00 23,6 12,5 8 4 SO 1007,3 0
06.07.2020 21:00:00 25,5 12,4 5 3 OSO 1006,8 24
06.07.2020 20:00:00 28,1 12,8 11 6 SO 1006,7 60
06.07.2020 19:00:00 29,8 12,9 13 7 OSO 1007,0 60
06.07.2020 18:00:00 30,5 12,7 16 9 SO 1006,8 60
06.07.2020 17:00:00 30,4 12,7 18 10 SSO 1007,1 60
06.07.2020 16:00:00 30,5 12,7 4 2 N 1007,5 60
06.07.2020 15:00:00 30,7 9,5 9 5 N 1007,8 60
06.07.2020 14:00:00 30,3 11,2 9 5 N 1008,4 60
06.07.2020 13:00:00 29,2 10,8 9 5 N 1009,1 60
06.07.2020 12:00:00 28,2 11,2 8 4 NNE 1009,7 60
06.07.2020 11:00:00 27,1 11,7 11 6 N 1010,0 60
06.07.2020 10:00:00 25,8 11,6 11 6 N 1010,2 15
06.07.2020 09:00:00 24,4 12,1 9 5 ENE 1010,6 0
06.07.2020 08:00:00 22,8 11,8 9 5 NE 1010,7 0
06.07.2020 07:00:00 21,9 11,7 11 6 NE 1010,7 0
06.07.2020 06:00:00 20,6 11,5 9 5 NE 1010,9 0
06.07.2020 05:00:00 20,6 11,1 11 6 ENE 1011,0 0
06.07.2020 04:00:00 21,4 10,8 11 6 NE 1011,3 0
06.07.2020 03:00:00 21,8 9,7 9 5 NE 1011,7 0
06.07.2020 02:00:00 23,4 10,0 11 6 NNE 1011,9 0
06.07.2020 01:00:00 23,5 10,3 4 2 N 1012,2 0
06.07.2020 00:00:00 23,9 10,4 11 6 N 1012,5 0
05.07.2020 23:00:00 24,6 10,6 9 5 N 1012,5 0
05.07.2020 22:00:00 25,2 9,8 13 7 N 1012,1 0
05.07.2020 21:00:00 26,1 10,2 11 6 N 1011,9 0
05.07.2020 20:00:00 28,0 10,5 11 6 NO 1011,4 0
05.07.2020 19:00:00 29,4 12,3 13 7 NNO 1011,5 0
05.07.2020 18:00:00 30,4 13,0 11 6 NNO 1012,0 0
05.07.2020 17:00:00 31,0 12,9 9 5 NNO 1012,4 0
05.07.2020 16:00:00 30,6 10,8 9 5 NNO 1013,0 0
05.07.2020 15:00:00 30,4 11,5 9 5 N 1013,4 0
05.07.2020 14:00:00 29,5 12,1 11 6 N 1014,0 0
05.07.2020 13:00:00 28,7 11,2 18 10 N 1014,4 0
05.07.2020 12:00:00 27,2 11,9 18 10 N 1014,9 0
05.07.2020 11:00:00 26,2 12,0 24 13 N 1014,8 0
05.07.2020 10:00:00 24,8 12,1 26 14 N 1014,9 0
05.07.2020 09:00:00 24,1 11,9 22 12 N 1015,2 0
05.07.2020 08:00:00 23,2 11,6 16 9 N 1014,9 0
05.07.2020 07:00:00 21,7 12,1 15 8 N 1015,2 0
05.07.2020 06:00:00 20,4 11,6 13 7 N 1015,2 0
05.07.2020 05:00:00 20,9 10,5 16 9 NNO 1015,1 0
05.07.2020 04:00:00 21,7 10,4 18 10 NNO 1014,9 0
05.07.2020 03:00:00 22,1 9,3 9 5 NO 1015,5 0
05.07.2020 02:00:00 21,6 11,5 9 5 NNO 1015,6 0
05.07.2020 01:00:00 21,5 16,4 9 5 N 1015,8 0
05.07.2020 00:00:00 21,1 16,6 9 5 NNO 1015,8 0
04.07.2020 23:00:00 21,0 18,4 9 5 NNO 1015,8 0
04.07.2020 22:00:00 20,9 18,2 4 2 N 1015,7 0
04.07.2020 21:00:00 21,9 20,1 5 3 O 1015,1 0
04.07.2020 20:00:00 23,4 19,7 5 3 NNO 1014,9 0
04.07.2020 19:00:00 23,8 19,3 8 4 NE 1014,7 0
04.07.2020 18:00:00 22,7 20,1 8 4 NE 1015,3 0
04.07.2020 17:00:00 20,6 20,6 16 9 SO 1016,0 0
04.07.2020 16:00:00 20,1 20,1 11 6 N 1015,6 0
04.07.2020 15:00:00 20,6 20,5 11 6 S 1015,4 0
04.07.2020 14:00:00 17,9 16,2 16 9 SSE 1015,5 0
04.07.2020 13:00:00 25,0 16,1 11 6 NNO 1014,5 0
04.07.2020 12:00:00 29,7 13,7 9 5 SE 1013,6 0
04.07.2020 11:00:00 27,9 17,0 13 7 ESE 1013,8 0
04.07.2020 10:00:00 27,1 19,8 5 3 NNE 1013,6 0
04.07.2020 09:00:00 26,0 20,5 9 5 ENE 1013,4 0
04.07.2020 08:00:00 24,3 20,1 8 4 NNE 1013,5 0
04.07.2020 07:00:00 21,5 18,8 5 3 NE 1013,7 0
04.07.2020 06:00:00 20,9 19,1 8 4 NNE 1013,3 0
04.07.2020 05:00:00 20,5 18,8 9 5 NNE 1013,1 0
04.07.2020 04:00:00 20,9 17,6 5 3 NE 1013,0 0
04.07.2020 03:00:00 21,5 17,5 5 3 N 1013,3 0
04.07.2020 02:00:00 21,8 16,6 2 1 NO 1012,8 0
04.07.2020 01:00:00 22,1 16,5 4 2 N 1013,3 0
04.07.2020 00:00:00 22,7 16,2 8 4 NNE 1013,4 0
03.07.2020 23:00:00 23,6 15,7 15 8 N 1013,2 0
03.07.2020 22:00:00 24,5 14,8 13 7 N 1012,9 0

tt = Temperatura
td = dewpoint
ff = velocità del vento
dd = direzione del vento
ppp = reduced air pressure
sd = ore di luce

Stazioni seguenti

WeatherPro
AMSI
MeteoEarth